Christchurch, New Zealand

1:57 PM NZDT on October 24, 2017 (GMT +1300)
Christchurch International

Weather History for NZCH - August, 2013

Change the Weather History Date:

Monday, August 5, 2013

  Actual Average Record
Temperature  
Mean Temperature 50 °F -  
Max Temperature 55 °F 52 °F 60 °F (2001)
Min Temperature 46 °F 34 °F 26 °F (2014)
Degree Days  
Heating Degree Days 14    
Moisture  
Dew Point 48 °F    
Average Humidity 94    
Maximum Humidity 100    
Minimum Humidity 82    
Precipitation  
Precipitation 0.00 in - - ()
Sea Level Pressure  
Sea Level Pressure 29.80 in    
Wind  
Wind Speed 6 mph ()    
Max Wind Speed 14 mph    
Max Gust Speed -    
Visibility 4.7 miles    
Events Fog , Rain    
Averages and records for this station are not official NWS values.
T = Trace of Precipitation, MM = Missing Value Source: Averaged Metar Reports

Daily Weather History Graph

Daily Weather History Graph

Search for Another Location

Airport or City:

Trip Planner

Search our weather history database for the weather conditions in past years. The results will help you decide how hot, cold, wet, or windy it might be!

Date:

Astronomy

Aug. 05, 2013 Rise Set
Actual Time 7:38 AM NZST 5:33 PM NZST
Civil Twilight 7:08 AM NZST 6:04 PM NZST
Nautical Twilight 6:33 AM NZST 6:38 PM NZST
Astronomical Twilight 6:00 AM NZST 7:11 PM NZST
Moon 6:03 AM NZST (8/5) 4:05 PM NZST (8/5)
Length of Visible Light 10h 56m
Length of Day
9h 55m
Waning Crescent, 3% of the Moon is Illuminated
Aug 5
Waning Crescent
Aug 7
New
Aug 14
First Quarter
Aug 21
Full
Aug 28
Last Quarter

Hourly Weather History & Observations

Time (NZST) Temp. Windchill Dew Point Humidity Pressure Visibility Wind Dir Wind Speed Gust Speed Precip Events Conditions
12:00 AM 50.0 °F - 48.2 °F 94% 29.89 in 6.2 mi East 11.5 mph - N/A   Partly Cloudy
1:00 AM 50.0 °F - 48.2 °F 94% 29.86 in 6.2 mi East 8.1 mph - N/A   Drizzle
2:00 AM 50.0 °F - 48.2 °F 94% 29.89 in 6.2 mi East 6.9 mph - N/A Rain Light Rain
3:00 AM 48.2 °F - 46.4 °F 93% 29.86 in 6.2 mi ENE 5.8 mph - N/A   Partly Cloudy
4:00 AM 48.2 °F - 46.4 °F 93% 29.86 in 6.2 mi NE 1.2 mph - N/A   Partly Cloudy
5:00 AM 50.0 °F - 48.2 °F 94% 29.86 in 2.5 mi East 6.9 mph - N/A   Drizzle
6:00 AM 46.4 °F 44.3 °F 46.4 °F 100% 29.86 in 2.5 mi NE 4.6 mph - N/A Fog Fog
6:45 AM 46.4 °F - 46.4 °F 100% 29.86 in 0.5 mi NE 1.2 mph - N/A Fog Fog
7:00 AM 46.4 °F 45.2 °F 46.4 °F 100% 29.86 in 0.5 mi ENE 3.5 mph - N/A Fog Fog
8:00 AM 46.4 °F - 46.4 °F 100% 29.86 in 0.3 mi North 2.3 mph - N/A Fog Fog
9:00 AM 48.2 °F - 48.2 °F 100% 29.86 in 0.2 mi ENE 3.5 mph - N/A Fog Fog
9:10 AM 50.0 °F - 48.2 °F 94% 29.86 in 1.9 mi ENE 6.9 mph - N/A   Unknown
10:00 AM 51.8 °F - 51.8 °F 100% 29.83 in - East 9.2 mph - N/A   Clear
11:00 AM 55.4 °F - 51.8 °F 88% 29.83 in 6.2 mi East 11.5 mph - N/A Fog Unknown
12:00 PM 53.6 °F - 50.0 °F 88% 29.83 in 6.2 mi East 11.5 mph - N/A Fog Mostly Cloudy
1:00 PM 51.8 °F - 50.0 °F 94% 29.80 in 6.2 mi East 12.7 mph - N/A Fog Mostly Cloudy
2:00 PM 55.4 °F - 50.0 °F 82% 29.74 in 6.2 mi East 10.4 mph - N/A   Partly Cloudy
3:00 PM 55.4 °F - 50.0 °F 82% 29.74 in 6.2 mi East 12.7 mph - N/A   Partly Cloudy
4:00 PM 51.8 °F - 50.0 °F 94% 29.74 in 6.2 mi East 13.8 mph - N/A   Mostly Cloudy
5:00 PM 50.0 °F - 48.2 °F 94% 29.71 in 6.2 mi East 10.4 mph - N/A   Mostly Cloudy
6:00 PM 48.2 °F - 48.2 °F 100% 29.71 in 6.2 mi ENE 8.1 mph - N/A   Mostly Cloudy
7:00 PM 48.2 °F - 48.2 °F 100% 29.74 in 6.2 mi NNE 3.5 mph - N/A   Mostly Cloudy
8:00 PM 48.2 °F - 46.4 °F 93% 29.71 in 6.2 mi NNE 4.6 mph - N/A   Partly Cloudy
9:00 PM 48.2 °F - 46.4 °F 93% 29.71 in 6.2 mi NE 4.6 mph - N/A   Partly Cloudy
10:00 PM 48.2 °F - 48.2 °F 100% 29.71 in - NE 4.6 mph - N/A   Clear
11:00 PM 48.2 °F - 46.4 °F 93% 29.71 in - East 2.3 mph - N/A   Clear